Location: Grums
(59.3529°N, 13.1129°E)
Time: 09:20:05
(UTC+02:00)

ISS - Visible Passes

Search period start: 23 September 2021 00:00
Search period end: 03 October 2021 00:00
Orbit: 419 x 424 km, 51.6° (Epoch: 23 September)

Date Brightness Start Highest point End Pass type
(mag) Time Alt. Az. Time Alt. Az. Time Alt. Az.
23 Sep -2.0 20:13:23 10° SW 20:15:54 20° SSE 20:17:41 14° SE visible
23 Sep -1.5 21:49:24 10° WSW 21:50:41 17° SW 21:50:41 17° SW visible
24 Sep -2.2 21:02:37 10° SW 21:05:18 22° S 21:05:32 22° S visible
25 Sep -2.1 20:15:52 10° SW 20:18:33 22° S 20:20:21 15° SE visible
25 Sep -1.3 21:52:22 10° WSW 21:53:21 14° SW 21:53:21 14° SW visible
26 Sep -1.9 21:05:26 10° WSW 21:07:57 19° SSW 21:08:10 19° S visible
27 Sep -1.9 20:18:35 10° WSW 20:21:13 21° S 20:22:59 15° SSE visible
27 Sep -0.9 21:55:51 10° SW 21:55:58 10° SW 21:55:58 10° SW visible
28 Sep -1.9 19:31:45 10° SW 19:34:27 22° S 19:37:09 10° SE visible
28 Sep -1.5 21:08:34 10° WSW 21:10:31 15° SSW 21:10:48 14° SSW visible
29 Sep -1.5 20:21:31 10° WSW 20:23:48 17° SSW 20:25:39 12° SSE visible
30 Sep -1.6 19:34:34 10° WSW 19:37:04 19° SSW 19:39:33 10° SE visible
01 Oct -1.1 20:25:02 10° SW 20:26:17 12° SSW 20:27:32 10° S visible
02 Oct -1.1 19:37:41 10° WSW 19:39:35 14° SSW 19:41:29 10° S visible
